COSMOS 2251 DEB, 39585

Orbit data source: Space-Track

COSMOS 2251 DEB, 39585 is space debris in LEO originally from a launch on Wed, 16 Jun 1993 UTC launched from the Plesetsk Missile And Space Complex (PKMTR). The debris from Iridium 33, an American commercial communications satellite, has been tracked extensively since its accidental collision with the defunct Russian satellite Cosmos 2251 in 2009. This event, occurring at high speed in low Earth orbit (LEO), generated thousands of pieces of space debris, significantly increasing the risk of further collisions. The Iridium 33 debris cloud has impacted space traffic management and orbital debris mitigation strategies, making it a subject of ongoing study in space situational awareness.

Loading next visibility...
Identifier
39585, 1993-036BUQ
Orbit
LEO
Country
Flag of CISCIS
Related business
Manufacturer
Unknown
Mission
Spacecraft
Bus & Motor
Unknown
Mass
Unknown
Launch date (UTC)
1993-06-16 (33 years ago)
Launch vehicle
Unknown
Launch site
Plesetsk Missile And Space Complex (PKMTR)
Object type
Payload
Rocket body
Debris
Shape & HBR
Unknown shape, 0.1 m
Radar Cross Section
Small (<0.1 m²)

Expand to show TLE details & history
Last TLE update: 1 week ago

TLE from 1 week ago
0 COSMOS 2251 DEB
1 39585U 93036BUQ 26200.37524588  .00000292  00000-0  66732-4 0  9994
2 39585  74.0398 244.9317 0067827 310.1136  49.4096 14.59151429657098
Epoch: 2026-07-19T09:00Z
TLE epoch observation values (Epoch: 2026-07-19T09:00:21.244Z)
Latitude
-0.00004°
Longitude
172.66863°
Altitude
667.52 km
Speed
7.54 km/s
True Right ascension
16h 19m 43s
True Declination
0° 00' 00"
Sunlit
Object was in full shadow at epoch
Visualization orbit readout
Latitude
Unknown
Longitude
Unknown
Altitude
Unknown
Speed
Unknown
Apparent Right ascension
Unknown
Apparent Declination
Unknown
Sunlit
N/A
Visualization observer readout
Local Sidereal Time
08:30:16
Azimuth
Unknown
Elevation
Unknown
Doppler factor
Unknown
Orbital elements
Apogee altitude
741.478 km
Perigee altitude
645.548 km
Semi-major axis
7,071.65 km
Eccentricity
0.00678
Inclination
74.0398°
RAAN
244.9317°
Arg. of periapsis
310.1136°
True anomaly
50.00308°
Mean anomaly
49.4096°
Eccentric anomaly
49.70601°
Mean motion
3.64974 °/min
Orbital period
98.64 mins
BSTAR
0.000066732
Loading maneuver chart data...
Computing Atmospheric mass density...

Documentation

Showing up to 5 results
|